RH
52 55 79 84 79 100 90 79 80 85 87 74 81 80 81 78 82 85 92 98 89 78 60 100 90 80 81 52 53 47 41 44 47 47 49 53 51 35 38 33 30 33 30 28 28 26 26
51 58 62 81 69 83 84 82 81 82 98 84 87 91 95 99 85 94 86 86 99 86 84 82 81 64 48 54 50 46 40 33 37 49 48 47 45 32 31 34 34 30 30 30 26 26 25
50 56 75 66 70 76 82 79 79 86 93 92 79 89 77 85 96 93 96 91 86 92 76 68 68 56 45 49 46 46 39 38 48 51 46 43 38 27 26 32 27 28 34 34 33 28 23
48 52 54 61 65 73 77 76 80 83 90 87 86 78 71 76 83 100 85 95 81 76 71 59 52 47 53 44 46 47 46 45 43 41 30 35 26 24 25 26 28 35 37 34 33 34 26
42 47 55 53 59 71 73 72 74 78 80 77 71 74 70 79 69 91 78 68 64 64 65 53 41 46 46 41 41 45 44 41 39 30 26 24 22 25 24 39 46 36 42 38 34 35 33
33 38 50 56 53 60 70 69 72 74 76 76 65 67 66 75 71 67 65 63 62 62 59 57 52 47 42 41 34 38 42 41 31 26 24 22 26 46 55 56 52 35 40 36 34 32 32
35 29 33 51 56 54 57 62 68 75 72 74 61 64 63 65 65 59 62 55 56 49 50 53 48 48 42 34 32 32 38 38 26 25 41 41 62 59 28 28 30 29 33 38 40 34 27
52 50 39 33 45 54 59 57 63 72 70 71 57 62 63 55 56 58 58 54 70 65 54 42 42 43 38 31 30 30 32 27 29 42 40 53 54 41 44 44 32 32 35 33 29 31 32
61 60 58 48 34 36 51 58 57 66 70 64 55 57 59 50 47 46 47 57 59 64 60 42 36 37 35 28 37 35 29 30 44 50 48 51 40 39 43 55 47 55 41 39 35 41 39
60 61 61 57 42 30 34 51 54 58 63 61 54 53 49 44 45 47 42 48 53 55 75 54 45 34 37 35 32 37 34 33 39 44 44 51 49 43 51 58 51 37 47 43 46 59 34
57 57 60 58 41 29 28 41 50 50 52 53 50 48 44 45 48 52 50 51 49 73 69 41 44 38 37 31 31 33 33 30 49 56 37 57 58 51 60 60 52 38 48 48 48 60 44
54 56 57 57 47 31 26 30 45 47 47 48 48 44 45 46 45 47 44 50 67 71 69 55 42 39 40 37 36 31 33 31 41 52 58 59 50 58 56 57 53 52 56 68 74 66 54
50 53 54 55 53 35 30 28 34 45 47 46 44 45 47 47 45 44 47 57 78 79 48 48 46 41 47 45 40 38 41 44 51 45 64 49 55 52 54 57 56 57 63 79 58 66 49
50 49 53 53 53 45 34 27 32 34 44 44 42 44 45 44 43 45 52 60 82 68 59 42 41 42 48 39 36 38 44 53 50 52 80 58 48 59 56 61 53 48 54 68 34 73 72
49 46 46 54 51 50 36 30 34 36 32 38 40 48 47 45 46 50 54 92 79 72 46 45 40 46 48 36 36 40 46 51 54 51 48 75 60 55 58 60 51 52 65 52 74 86 70
49 46 43 45 52 50 47 36 34 39 38 36 50 56 40 41 54 60 74 78 63 54 56 40 43 39 45 38 37 38 43 44 49 47 43 52 56 56 58 55 56 56 47 45 72 43 45
42 46 45 43 44 51 50 47 37 39 43 46 57 61 34 51 57 46 87 71 54 50 50 45 49 40 40 38 36 37 50 42 42 42 41 41 48 65 58 64 53 62 57 57 56 59 52
22 44 45 44 39 47 50 48 47 37 42 50 63 59 37 48 57 73 74 52 48 50 48 46 44 46 39 38 43 48 51 45 47 46 42 48 65 80 44 52 50 47 43 49 50 34 56
17 27 46 46 41 39 47 48 46 43 34 41 52 52 46 51 72 80 54 57 56 51 53 51 47 47 40 45 45 55 59 53 49 56 50 43 52 72 43 45 51 55 55 47 49 60 55
25 18 31 48 47 40 41 46 45 45 36 40 51 72 46 43 50 58 54 56 55 54 52 48 46 44 40 41 45 59 62 55 51 56 50 46 52 43 39 36 55 52 59 57 52 79 56
31 24 21 36 47 42 40 43 46 44 47 50 46 49 58 61 48 46 48 54 59 53 52 50 46 46 44 46 44 57 64 63 57 57 55 55 42 61 51 48 49 45 48 59 65 56 48
34 31 24 26 43 45 40 39 43 45 44 45 44 52 48 48 44 41 49 51 54 50 49 50 48 43 42 43 41 52 61 61 56 67 58 63 45 64 70 51 60 62 57 53 59 55 58
38 38 32 25 37 47 46 41 38 43 44 48 47 42 47 48 47 44 49 44 46 46 48 47 43 47 46 51 46 45 44 47 50 66 72 70 74 79 50 68 58 39 48 54 55 50 45
42 51 44 35 31 47 49 47 42 42 44 46 47 46 49 60 51 42 43 42 51 48 50 49 46 44 50 48 46 46 44 47 52 64 60 77 74 80 86 52 38 26 37 38 49 46 49
72 69 59 51 35 42 54 49 47 46 48 49 46 47 56 73 50 42 47 51 52 49 50 50 54 52 46 45 53 51 57 46 60 70 64 66 74 80 79 85 50 36 42 41 47 40 47
80 82 80 69 59 38 57 56 50 46 50 52 52 48 48 64 62 42 46 47 58 57 54 58 58 56 51 57 54 43 49 47 63 68 66 75 73 69 83 82 53 31 36 36 34 46 44
89 84 86 83 94 77 58 66 60 51 51 54 54 52 51 56 60 43 43 49 46 52 61 64 59 57 55 70 62 62 62 46 56 71 83 85 83 90 82 84 70 48 36 36 39 39 45
94 89 84 86 91 99 80 76 71 65 58 60 58 57 52 52 59 62 48 49 49 48 62 60 61 67 72 66 65 67 69 53 51 61 78 82 90 96 87 87 80 42 40 41 38 46 43
99 98 87 89 89 96 99 96 80 75 70 69 64 61 60 56 55 64 61 57 52 51 51 56 56 63 54 73 81 74 64 64 54 50 64 63 58 73 73 66 41 39 40 34 39 40 42
Wind_Speed
15 13 14 15 16 17 19 23 23 23 28 21 21 17 11 8 13 14 13 7 12 14 21 18 32 29 11 9 5 4 7 11 13 19 20 14 14 7 7 8 6 4 2 7 6 13 12
15 14 15 16 15 16 19 22 23 22 27 24 17 21 19 19 17 18 20 26 22 27 20 24 27 12 15 6 7 5 10 14 19 16 15 12 13 8 10 6 5 8 13 7 10 10 9
13 13 15 15 14 15 17 20 21 22 22 29 21 24 24 23 17 18 19 24 29 30 28 22 16 17 23 12 7 12 13 18 17 11 9 13 7 5 11 8 13 13 6 5 12 8 3
12 12 13 15 14 14 16 18 18 20 20 25 24 24 22 24 23 20 21 25 25 21 23 25 14 12 8 13 10 10 16 15 10 12 13 11 12 16 6 20 6 4 5 4 4 8 3
12 11 11 13 13 12 14 16 16 14 17 22 22 21 18 20 21 27 23 23 22 19 21 22 16 15 5 11 13 11 15 13 13 14 15 17 12 8 8 6 5 5 4 4 1 3 3
14 12 10 10 12 11 12 14 14 12 12 15 21 17 16 17 12 15 15 11 8 11 10 7 8 6 6 8 12 12 11 14 12 15 13 6 6 4 4 5 5 5 6 3 4 1 1
19 17 13 9 9 10 11 12 12 9 9 9 14 14 12 14 9 7 4 6 3 6 16 10 8 15 10 13 12 13 12 13 9 7 4 6 8 4 3 1 4 7 6 6 1 1 1
20 20 18 13 7 7 8 9 10 8 6 6 10 13 12 17 17 6 4 7 7 4 5 15 15 15 14 9 11 12 13 5 4 4 2 7 4 3 5 4 6 6 8 3 1 1 1
20 21 21 18 13 6 5 5 7 7 6 6 8 11 9 11 14 12 15 10 7 5 2 12 15 14 9 15 8 12 7 8 7 5 6 6 1 5 3 8 8 5 7 4 3 2 2
19 21 22 21 18 10 4 3 4 5 6 7 6 9 9 5 8 10 12 10 7 4 5 10 10 8 7 5 8 14 10 5 6 6 4 7 6 4 7 7 3 4 3 3 4 4 3
19 21 22 24 21 13 5 2 2 3 4 5 3 5 5 6 8 8 8 8 5 0 6 8 6 4 7 6 3 10 9 9 5 3 5 3 5 7 9 3 2 4 2 4 3 4 3
17 20 22 24 24 17 9 3 2 1 0 1 1 1 7 11 12 9 11 8 2 5 2 6 4 4 4 7 4 4 7 13 8 8 7 3 3 4 2 3 4 5 5 7 5 3 3
14 18 21 23 24 20 13 6 2 1 1 3 6 8 11 10 8 8 6 4 5 6 4 2 2 3 4 5 5 4 4 5 4 5 4 6 4 4 4 4 4 5 5 3 4 4 5
12 15 18 21 23 21 16 9 4 3 2 1 4 7 7 7 4 3 4 5 8 4 3 3 2 3 4 3 3 3 3 4 6 5 4 4 5 4 6 3 2 2 4 5 5 3 4
10 12 15 18 21 22 17 11 8 3 3 3 2 5 6 4 2 3 2 6 6 5 2 2 2 4 5 3 3 4 4 2 2 3 5 4 3 3 2 2 2 1 2 3 6 3 3
8 11 13 15 18 20 18 13 9 7 2 1 1 2 10 5 4 4 5 4 2 2 3 1 2 1 2 2 3 3 2 2 1 1 0 5 4 1 2 1 2 2 3 3 3 2 3
8 9 11 12 15 17 19 15 10 6 5 3 3 1 4 3 6 6 4 2 2 2 3 2 2 2 2 1 2 2 1 2 3 2 3 3 3 3 3 3 5 1 0 3 3 4 4
10 8 9 11 12 14 16 18 13 7 4 4 3 2 4 2 4 4 2 3 3 2 3 3 2 3 2 3 4 3 2 1 3 1 2 1 4 3 2 2 1 3 4 5 4 4 1
13 10 8 8 10 12 14 15 17 12 5 2 2 3 6 3 4 2 2 4 3 1 2 3 2 3 2 2 3 2 2 2 4 3 2 0 1 2 6 3 2 4 4 4 4 3 5
12 14 11 7 7 9 12 14 15 13 10 4 2 2 3 5 5 6 4 3 2 3 2 1 2 1 3 2 4 3 1 3 3 3 4 2 2 4 6 4 3 3 5 5 5 3 4
15 12 12 10 8 7 8 11 13 13 9 5 3 1 2 1 3 2 2 4 3 3 2 2 3 1 2 3 2 2 2 1 2 1 2 3 2 1 4 5 2 3 5 7 9 6 7
17 14 12 11 9 7 7 8 10 11 9 6 2 1 1 2 1 2 3 4 5 2 3 2 3 1 2 2 3 6 5 3 3 1 3 2 2 2 4 2 4 6 10 11 10 9 11
16 16 13 11 11 9 7 7 8 8 8 3 3 2 2 1 2 3 2 3 5 7 0 0 2 3 2 4 3 5 4 5 6 7 5 3 4 2 4 4 6 8 12 14 5 6 11
15 14 15 13 11 11 9 7 7 7 6 4 3 1 1 1 1 3 3 2 3 1 4 2 2 3 2 4 4 3 3 3 5 3 5 5 4 2 3 3 2 6 3 4 10 7 11
15 13 13 14 12 12 11 9 7 6 5 4 3 1 1 1 2 0 4 4 4 3 2 2 1 3 6 3 3 3 3 3 2 4 2 0 4 1 2 3 8 4 4 6 6 7 8
16 15 12 13 13 12 13 10 8 6 5 4 3 1 1 2 3 2 4 5 4 3 1 2 3 5 3 3 2 3 4 3 2 1 5 3 4 3 2 2 5 3 2 3 3 5 8
16 16 15 12 13 13 14 13 10 8 6 5 3 2 2 2 3 3 3 4 5 4 2 2 4 4 5 2 2 3 3 4 3 5 4 2 1 5 3 3 8 7 5 5 2 4 7
20 16 16 15 14 14 13 15 12 9 7 5 5 3 2 3 4 5 6 5 4 5 4 7 4 2 2 3 3 3 3 4 2 4 6 7 6 4 4 3 9 8 5 6 3 8 13
24 20 17 16 12 15 15 14 15 12 9 7 6 5 4 5 4 5 7 11 11 8 5 12 2 5 8 3 2 1 3 1 3 3 2 3 7 5 10 7 5 14 4 10 7 13 14
Wind_Direction
30 19 20 11 16 16 19 28 25 30 42 36 40 43 33 43 49 85 88 116 131 154 176 177 123 123 155 127 74 108 163 178 172 168 173 170 165 133 133 127 102 84 115 60 48 78 84
27 23 16 16 20 27 31 33 35 41 49 48 44 53 50 46 79 81 88 82 109 106 134 143 138 126 141 80 54 113 153 167 167 164 171 180 185 139 103 85 86 119 98 78 50 47 61
20 23 20 20 25 30 33 36 43 46 52 63 63 60 55 57 65 78 89 103 110 117 101 97 125 126 90 62 73 115 134 154 159 154 156 175 171 183 122 94 117 117 78 44 25 6 48
16 20 22 27 28 33 35 40 45 49 60 64 63 59 54 54 60 86 88 102 100 117 118 106 109 163 72 76 94 114 129 133 128 131 127 167 157 124 90 116 82 69 59 96 322 5 346
20 17 20 23 31 38 35 39 46 52 71 70 56 61 55 63 66 82 101 100 96 91 99 93 72 76 58 76 93 108 116 121 128 134 125 135 135 95 109 88 48 11 139 102 357 51 311
22 18 12 22 22 37 34 38 43 56 80 70 60 80 74 55 55 86 96 89 63 47 46 71 76 57 76 57 87 108 125 128 131 134 123 102 77 78 41 73 177 160 109 85 151 224 72
25 23 16 10 12 21 35 33 43 56 76 84 59 68 67 43 49 96 81 53 86 80 68 72 71 89 81 96 91 116 137 133 118 85 82 34 75 119 120 171 153 129 113 116 220 244 92
25 24 22 11 360 360 15 22 32 61 87 61 65 62 67 55 61 74 5 76 51 63 41 67 69 77 76 83 89 82 129 101 71 77 62 38 79 292 287 60 110 92 114 79 45 181 93
23 23 22 18 8 347 350 10 18 45 86 71 76 59 71 82 66 68 42 46 29 12 50 39 40 45 48 71 47 44 88 93 82 59 53 103 138 332 98 45 84 35 114 152 140 79 53
25 20 20 18 12 9 339 11 24 36 69 105 80 64 91 69 37 25 28 9 9 352 73 331 356 25 19 33 47 48 71 89 51 114 72 69 346 74 64 70 59 91 330 95 85 86 187
24 23 20 16 15 10 9 357 55 61 98 116 77 43 68 21 3 355 354 346 339 193 63 304 339 18 34 70 124 26 48 82 76 45 87 272 24 45 56 340 352 150 75 76 73 86 68
21 21 20 20 17 16 17 355 54 88 97 290 284 306 303 324 329 335 338 339 348 40 344 337 331 3 35 32 41 61 74 81 93 60 45 76 48 55 83 20 61 136 70 44 51 66 30
17 18 20 19 21 19 14 27 318 98 95 317 311 313 317 314 311 319 333 339 37 84 276 340 19 56 68 15 35 52 37 39 108 86 12 3 356 355 40 69 20 71 63 13 360 6 219
7 11 17 19 18 22 20 13 29 260 221 304 329 327 330 326 317 337 343 55 68 253 259 280 48 52 70 7 29 42 78 52 35 85 100 122 335 8 343 49 161 78 129 148 202 194 258
352 2 8 17 18 20 25 20 10 15 261 235 315 342 357 5 40 37 17 53 173 216 315 66 37 66 359 7 116 73 59 80 30 22 123 126 358 313 49 8 61 173 60 151 106 32 43
331 348 1 7 17 18 24 22 14 9 17 315 36 333 22 49 34 26 72 112 110 240 351 100 53 125 111 350 63 70 47 328 28 46 27 194 82 314 313 32 30 82 164 66 359 130 260
311 329 345 359 5 15 18 20 21 19 17 6 354 354 21 20 5 46 106 156 122 28 49 55 28 78 106 121 98 67 352 335 359 350 20 134 93 289 33 195 179 57 39 61 114 143 170
303 307 325 343 359 3 13 16 12 13 352 2 5 26 5 15 52 33 56 116 127 46 26 36 102 66 83 36 50 80 132 289 359 9 91 10 118 146 199 253 242 209 207 156 129 216 161
300 294 299 325 346 355 0 11 14 8 14 12 51 357 16 3 105 31 6 38 58 77 47 31 56 31 34 73 87 80 85 3 20 52 103 67 32 45 349 354 359 222 206 175 116 84 199
289 292 288 302 328 347 352 360 10 16 13 34 47 32 34 50 62 123 128 133 50 3 338 13 154 82 68 70 33 139 97 7 23 55 49 54 110 169 192 213 138 216 220 190 148 137 190
282 287 287 284 297 323 345 355 1 13 20 19 27 61 77 1 11 93 112 152 146 171 159 357 349 172 159 132 102 133 123 69 28 58 66 96 209 24 257 251 258 249 236 192 205 201 193
273 280 284 275 276 297 324 341 356 3 14 44 53 42 76 107 60 89 18 210 164 184 147 226 159 170 51 123 183 198 144 192 202 147 154 28 225 122 283 260 216 250 235 227 222 226 252
264 273 278 280 266 272 295 319 338 356 12 52 48 48 348 21 75 90 233 187 204 144 206 81 174 109 114 181 127 109 132 137 193 155 176 136 131 89 263 349 319 286 231 214 189 206 214
265 270 274 280 266 259 271 293 318 340 356 18 23 80 114 283 141 198 172 152 149 174 169 166 144 128 132 139 123 115 96 101 141 89 165 144 125 136 255 354 299 246 186 200 205 235 220
258 264 269 269 270 251 253 270 292 317 335 334 0 6 179 201 223 179 148 126 120 115 88 145 119 142 148 132 65 28 345 8 39 22 19 137 133 176 161 214 291 278 190 181 182 278 204
258 256 262 256 260 257 241 249 266 287 309 317 311 336 205 139 241 224 173 179 160 169 13 166 160 162 164 81 87 182 224 214 237 254 16 48 67 134 128 199 244 258 213 172 127 283 185
254 257 257 266 245 257 234 237 247 258 275 288 284 313 254 222 208 200 196 190 170 147 128 156 165 157 172 105 155 195 252 164 197 185 168 136 202 199 202 264 286 245 194 153 125 262 151
241 252 251 257 256 246 249 226 234 244 250 260 264 262 236 245 241 226 221 209 189 190 156 154 112 200 88 161 167 220 203 230 175 170 177 171 159 196 150 205 268 173 115 177 208 143 152
240 241 249 247 257 239 253 245 224 231 236 242 248 247 253 249 248 231 234 237 233 224 210 184 232 166 180 119 218 126 228 189 187 253 108 240 193 180 190 213 245 203 223 217 182 174 180